Weather History for KNTD - October, 2014

Change the Weather History Date:

Tuesday, October 21, 2014

  Actual Average Record
Temperature  
Mean Temperature 66 °F -  
Max Temperature 79 °F 67 °F 81 °F (2007)
Min Temperature 59 °F 51 °F 46 °F (2006)
Cooling Degree Days 1    
Growing Degree Days 16 (Base 50)    
Moisture  
Dew Point 58 °F    
Average Humidity 76    
Maximum Humidity 87    
Minimum Humidity 52    
Precipitation  
Precipitation 0.00 in - - ()
Sea Level Pressure  
Sea Level Pressure 29.89 in    
Wind  
Wind Speed 5 mph (NNW)    
Max Wind Speed 12 mph    
Max Gust Speed -    
Visibility 10 miles    
Events Rain    
Averages and records for this station are not official NWS values.
T = Trace of Precipitation, MM = Missing Value Source: NWS Daily Summary

Daily Weather History Graph

Daily Weather History Graph

Search for Another Location

Airport or City:

Trip Planner

Search our weather history database for the weather conditions in past years. The results will help you decide how hot, cold, wet, or windy it might be!

Date:

Astronomy

Oct. 21, 2014 Rise Set
Actual Time 7:06 AM PDT 6:14 PM PDT
Civil Twilight 6:41 AM PDT 6:40 PM PDT
Nautical Twilight 6:11 AM PDT 7:09 PM PDT
Astronomical Twilight 5:42 AM PDT 7:38 PM PDT
Moon 5:01 AM PDT (10/21) 5:07 PM PDT (10/21)
Length of Visible Light 11h 59m
Length of Day
11h 08m
Waning Crescent, 4% of the Moon is Illuminated
Oct 21
Waning Crescent
Oct 23
New
Oct 30
First Quarter
Nov 6
Full
Nov 14
Last Quarter

Hourly Weather History & Observations

Time (PDT) Temp. Dew Point Humidity Pressure Visibility Wind Dir Wind Speed Gust Speed Precip Events Conditions
12:56 AM 61.0 °F 57.0 °F 87% 29.90 in 10.0 mi NW 3.5 mph - 0.00 in Rain Light Rain
1:56 AM 61.0 °F 55.9 °F 83% 29.90 in 10.0 mi North 3.5 mph - 0.00 in Rain Light Rain
2:56 AM 60.1 °F 55.0 °F 83% 29.90 in 10.0 mi NE 4.6 mph - 0.00 in Rain Light Rain
3:56 AM 59.0 °F 54.0 °F 83% 29.90 in 10.0 mi NNE 4.6 mph - 0.00 in Rain Light Rain
4:56 AM 60.1 °F 55.0 °F 83% 29.89 in 10.0 mi NNE 6.9 mph - 0.00 in Rain Light Rain
5:56 AM 59.0 °F 54.0 °F 83% 29.90 in 10.0 mi NNE 5.8 mph - N/A   Clear
6:56 AM 59.0 °F 54.0 °F 83% 29.92 in 10.0 mi NNE 3.5 mph - N/A   Partly Cloudy
7:56 AM 61.0 °F 55.0 °F 81% 29.92 in 10.0 mi North 4.6 mph - N/A   Partly Cloudy
8:56 AM 64.0 °F 57.0 °F 78% 29.94 in 10.0 mi NE 3.5 mph - N/A   Partly Cloudy
9:56 AM 69.1 °F 60.1 °F 73% 29.93 in 10.0 mi Variable 3.5 mph - N/A   Partly Cloudy
10:56 AM 71.1 °F 62.1 °F 73% 29.94 in 10.0 mi WSW 5.8 mph - N/A   Scattered Clouds
11:56 AM 73.0 °F 62.1 °F 68% 29.92 in 10.0 mi SW 8.1 mph - N/A   Scattered Clouds
12:56 PM 73.0 °F 62.1 °F 68% 29.90 in 10.0 mi SW 10.4 mph - N/A   Mostly Cloudy
1:56 PM 73.0 °F 63.0 °F 71% 29.88 in 10.0 mi West 11.5 mph - N/A   Mostly Cloudy
2:56 PM 73.0 °F 64.0 °F 73% 29.86 in 10.0 mi West 10.4 mph - N/A   Scattered Clouds
3:56 PM 73.9 °F 55.0 °F 52% 29.86 in 10.0 mi WSW 8.1 mph - N/A   Partly Cloudy
4:56 PM 73.9 °F 57.0 °F 55% 29.85 in 10.0 mi West 9.2 mph - N/A   Partly Cloudy
5:56 PM 71.1 °F 60.1 °F 68% 29.84 in 10.0 mi West 4.6 mph - N/A   Partly Cloudy
6:56 PM 68.0 °F 60.1 °F 76% 29.85 in 10.0 mi WSW 4.6 mph - N/A   Partly Cloudy
7:56 PM 68.0 °F 60.1 °F 76% 29.86 in 10.0 mi Calm Calm - N/A   Clear
8:56 PM 64.9 °F 59.0 °F 81% 29.86 in 10.0 mi Calm Calm - N/A   Clear
9:56 PM 64.0 °F 57.9 °F 80% 29.87 in 10.0 mi North 4.6 mph - N/A   Partly Cloudy
10:56 PM 64.0 °F 57.0 °F 78% 29.88 in 10.0 mi North 4.6 mph - N/A   Clear
11:56 PM 62.1 °F 57.0 °F 84% 29.88 in 10.0 mi NNE 4.6 mph - 0.00 in Rain Light Rain